Weather History for KBTP - December, 2013

Change the Weather History Date:

Thursday, December 5, 2013

  Actual Average Record
Temperature  
Mean Temperature 48 °F -  
Max Temperature 60 °F 41 °F 71 °F (2001)
Min Temperature 35 °F 27 °F 5 °F (1976)
Degree Days  
Heating Degree Days 16    
Moisture  
Dew Point 47 °F    
Average Humidity 81    
Maximum Humidity 94    
Minimum Humidity 67    
Precipitation  
Precipitation 0.32 in - - ()
Sea Level Pressure  
Sea Level Pressure 29.92 in    
Wind  
Wind Speed 8 mph (SSW)    
Max Wind Speed 13 mph    
Max Gust Speed 21 mph    
Visibility 8 miles    
Events      
Averages and records for this station are not official NWS values.
T = Trace of Precipitation, MM = Missing Value Source: NWS Daily Summary

Daily Weather History Graph

Daily Weather History Graph

Search for Another Location

Airport or City:

Trip Planner

Search our weather history database for the weather conditions in past years. The results will help you decide how hot, cold, wet, or windy it might be!

Date:

Astronomy

Dec. 05, 2013 Rise Set
Actual Time 7:28 AM EST 4:52 PM EST
Civil Twilight 6:58 AM EST 5:22 PM EST
Nautical Twilight 6:23 AM EST 5:57 PM EST
Astronomical Twilight 5:50 AM EST 6:30 PM EST
Moon 9:47 AM EST (12/5) 8:11 PM EST (12/5)
Length of Visible Light 10h 24m
Length of Day
9h 23m
Waxing Crescent, 10% of the Moon is Illuminated
Dec 5
Waxing Crescent
Dec 9
First Quarter
Dec 17
Full
Dec 25
Last Quarter
Jan 1
New

Hourly Weather History & Observations

Time (EST) Temp. Windchill Dew Point Humidity Pressure Visibility Wind Dir Wind Speed Gust Speed Precip Events Conditions
12:15 AM 51.8 °F - 42.8 °F 71% 29.91 in 10.0 mi SE 8.1 mph - N/A   Overcast
12:35 AM 53.6 °F - 42.8 °F 67% 29.89 in 10.0 mi SE 6.9 mph - N/A   Overcast
12:55 AM 53.6 °F - 42.8 °F 67% 29.89 in 10.0 mi SE 6.9 mph - N/A   Overcast
1:15 AM 53.6 °F - 42.8 °F 67% 29.89 in 10.0 mi SE 6.9 mph - N/A   Overcast
1:35 AM 53.6 °F - 44.6 °F 72% 29.88 in 10.0 mi SE 6.9 mph - N/A   Mostly Cloudy
1:55 AM 53.6 °F - 44.6 °F 72% 29.89 in 10.0 mi SSE 4.6 mph - N/A   Scattered Clouds
2:15 AM 53.6 °F - 44.6 °F 72% 29.88 in 10.0 mi South 5.8 mph - N/A   Mostly Cloudy
2:35 AM 55.4 °F - 44.6 °F 67% 29.89 in 10.0 mi South 9.2 mph 18.4 mph N/A   Overcast
2:55 AM 55.4 °F - 46.4 °F 72% 29.89 in 10.0 mi South 9.2 mph - N/A   Overcast
3:15 AM 57.2 °F - 46.4 °F 67% 29.88 in 10.0 mi South 9.2 mph 17.3 mph N/A   Mostly Cloudy
3:35 AM 57.2 °F - 46.4 °F 67% 29.87 in 10.0 mi SSE 10.4 mph - N/A   Overcast
3:55 AM 57.2 °F - 46.4 °F 67% 29.87 in 10.0 mi South 10.4 mph 20.7 mph N/A   Mostly Cloudy
4:15 AM 57.2 °F - 46.4 °F 67% 29.87 in 10.0 mi South 10.4 mph 17.3 mph N/A   Mostly Cloudy
4:35 AM 57.2 °F - 48.2 °F 72% 29.87 in 10.0 mi South 9.2 mph - N/A   Overcast
4:55 AM 57.2 °F - 48.2 °F 72% 29.87 in 10.0 mi SSW 10.4 mph 17.3 mph N/A   Mostly Cloudy
5:15 AM 57.2 °F - 48.2 °F 72% 29.87 in 10.0 mi South 9.2 mph 18.4 mph N/A   Mostly Cloudy
5:35 AM 59.0 °F - 48.2 °F 67% 29.87 in 10.0 mi South 11.5 mph - N/A   Mostly Cloudy
5:55 AM 59.0 °F - 48.2 °F 67% 29.87 in 10.0 mi South 10.4 mph - N/A   Overcast
6:15 AM 59.0 °F - 48.2 °F 67% 29.88 in 10.0 mi South 11.5 mph - N/A   Overcast
6:35 AM 57.2 °F - 48.2 °F 72% 29.87 in 10.0 mi South 10.4 mph - N/A   Overcast
6:55 AM 57.2 °F - 48.2 °F 72% 29.87 in 10.0 mi South 10.4 mph - N/A   Overcast
7:15 AM 57.2 °F - 48.2 °F 72% 29.87 in 10.0 mi South 8.1 mph - N/A   Overcast
7:35 AM 57.2 °F - 50.0 °F 77% 29.88 in 10.0 mi South 10.4 mph - N/A   Mostly Cloudy
7:55 AM 57.2 °F - 48.2 °F 72% 29.88 in 10.0 mi South 8.1 mph - N/A   Scattered Clouds
8:15 AM 57.2 °F - 50.0 °F 77% 29.88 in 10.0 mi South 9.2 mph - N/A   Mostly Cloudy
8:35 AM 59.0 °F - 50.0 °F 72% 29.88 in 10.0 mi South 8.1 mph - N/A   Mostly Cloudy
8:55 AM 59.0 °F - 50.0 °F 72% 29.89 in 10.0 mi South 11.5 mph - N/A   Partly Cloudy
9:15 AM 60.8 °F - 51.8 °F 72% 29.89 in 10.0 mi SSW 11.5 mph 16.1 mph N/A   Scattered Clouds
9:35 AM 60.8 °F - 51.8 °F 72% 29.89 in 10.0 mi SSW 11.5 mph - N/A   Mostly Cloudy
9:55 AM 60.8 °F - 51.8 °F 72% 29.90 in 10.0 mi SSW 11.5 mph - N/A   Scattered Clouds
10:15 AM 59.0 °F - 51.8 °F 77% 29.90 in 6.0 mi SSW 9.2 mph 16.1 mph 0.01 in   Mostly Cloudy
10:35 AM 57.2 °F - 53.6 °F 88% 29.90 in 7.0 mi South 9.2 mph 16.1 mph 0.04 in   Overcast
10:55 AM 57.2 °F - 53.6 °F 88% 29.90 in 7.0 mi South 8.1 mph - 0.06 in   Overcast
11:15 AM 57.2 °F - 53.6 °F 88% 29.90 in 5.0 mi South 8.1 mph - N/A   Mostly Cloudy
11:35 AM 57.2 °F - 53.6 °F 88% 29.89 in 5.0 mi South 9.2 mph - 0.02 in   Overcast
11:55 AM 57.2 °F - 53.6 °F 88% 29.89 in 3.0 mi SSW 6.9 mph - 0.03 in   Mostly Cloudy
12:15 PM 57.2 °F - 55.4 °F 94% 29.89 in 4.0 mi SSW 11.5 mph - 0.03 in   Mostly Cloudy
12:35 PM 57.2 °F - 55.4 °F 94% 29.89 in 3.0 mi SSW 8.1 mph - 0.06 in   Overcast
12:55 PM 57.2 °F - 55.4 °F 94% 29.88 in 4.0 mi SSW 8.1 mph - 0.08 in   Overcast
1:15 PM 57.2 °F - 55.4 °F 94% 29.88 in 5.0 mi SW 6.9 mph - N/A   Overcast
1:35 PM 57.2 °F - 55.4 °F 94% 29.88 in 6.0 mi SW 8.1 mph - N/A   Overcast
1:55 PM 57.2 °F - 55.4 °F 94% 29.88 in 7.0 mi SW 8.1 mph - N/A   Overcast
2:15 PM 59.0 °F - 55.4 °F 88% 29.89 in 8.0 mi SW 12.7 mph 16.1 mph N/A   Overcast
2:35 PM 59.0 °F - 55.4 °F 88% 29.88 in 9.0 mi SW 8.1 mph - N/A   Overcast
2:55 PM 59.0 °F - 55.4 °F 88% 29.88 in 7.0 mi SSW 8.1 mph - N/A   Mostly Cloudy
3:15 PM 57.2 °F - 55.4 °F 94% 29.88 in 5.0 mi SSW 10.4 mph - 0.01 in   Overcast
3:35 PM 57.2 °F - 55.4 °F 94% 29.89 in 5.0 mi SSW 8.1 mph - 0.02 in   Overcast
3:55 PM 57.2 °F - 55.4 °F 94% 29.89 in 6.0 mi SSW 6.9 mph - 0.03 in   Overcast
4:15 PM 57.2 °F - 55.4 °F 94% 29.89 in 4.0 mi SSW 5.8 mph - 0.01 in   Overcast
4:35 PM 57.2 °F - 55.4 °F 94% 29.90 in 4.0 mi South 6.9 mph - 0.01 in   Overcast
4:55 PM 57.2 °F - 55.4 °F 94% 29.89 in 5.0 mi SSW 6.9 mph - 0.01 in   Mostly Cloudy
5:15 PM 57.2 °F - 55.4 °F 94% 29.90 in 5.0 mi SSW 10.4 mph - N/A   Overcast
5:35 PM 57.2 °F - 55.4 °F 94% 29.92 in 5.0 mi West 6.9 mph - 0.01 in   Mostly Cloudy
5:55 PM 55.4 °F - 53.6 °F 94% 29.92 in 6.0 mi WNW 5.8 mph - 0.02 in   Overcast
6:15 PM 55.4 °F - 51.8 °F 88% 29.94 in 8.0 mi NW 10.4 mph - N/A   Overcast
6:35 PM 48.2 °F - 44.6 °F 87% 29.97 in 10.0 mi NW 10.4 mph 17.3 mph N/A   Overcast
6:55 PM 46.4 °F 42.4 °F 41.0 °F 81% 29.96 in 10.0 mi WNW 8.1 mph - N/A   Overcast
7:15 PM 46.4 °F 42.4 °F 41.0 °F 81% 29.98 in 10.0 mi NW 8.1 mph - N/A   Overcast
7:35 PM 46.4 °F 42.9 °F 39.2 °F 76% 29.98 in 10.0 mi NW 6.9 mph - 0.01 in   Overcast
7:55 PM 44.6 °F 40.2 °F 39.2 °F 81% 30.00 in 9.0 mi NW 8.1 mph 18.4 mph 0.01 in   Overcast
8:15 PM 42.8 °F 37.0 °F 37.4 °F 81% 30.01 in 9.0 mi WNW 10.4 mph 16.1 mph N/A   Overcast
8:35 PM 42.8 °F 38.0 °F 37.4 °F 81% 30.00 in 5.0 mi NW 8.1 mph - N/A   Overcast
8:55 PM 41.0 °F 37.1 °F 35.6 °F 81% 29.99 in 10.0 mi NW 5.8 mph - N/A   Overcast
9:15 PM 41.0 °F 36.4 °F 35.6 °F 81% 29.99 in 8.0 mi NW 6.9 mph - N/A   Overcast
9:35 PM 39.2 °F 35.9 °F 35.6 °F 87% 30.00 in 6.0 mi NNW 4.6 mph - 0.01 in   Overcast
9:55 PM 39.2 °F 34.2 °F 35.6 °F 87% 30.01 in 7.0 mi NNW 6.9 mph - 0.01 in   Mostly Cloudy
10:15 PM 39.2 °F 34.2 °F 35.6 °F 87% 30.02 in 6.0 mi NW 6.9 mph - 0.02 in   Overcast
10:35 PM 39.2 °F 34.2 °F 33.8 °F 81% 30.02 in 7.0 mi NNW 6.9 mph - 0.04 in   Overcast
10:55 PM 37.4 °F 32.1 °F 33.8 °F 87% 30.00 in 9.0 mi NNW 6.9 mph - 0.04 in   Overcast
11:15 PM 37.4 °F 32.8 °F 33.8 °F 87% 30.05 in 10.0 mi WNW 5.8 mph - N/A   Overcast
11:35 PM 37.4 °F 33.8 °F 33.8 °F 87% 30.08 in 8.0 mi WNW 4.6 mph - 0.01 in   Overcast
11:55 PM 35.6 °F 29.9 °F 32.0 °F 87% 30.07 in 5.0 mi NNW 6.9 mph - 0.03 in   Overcast